CST,Max TemperatureF,Mean TemperatureF,Min TemperatureF,Max Dew PointF,MeanDew PointF,Min DewpointF,Max Humidity, Mean Humidity, Min Humidity, Max Sea Level PressureIn, Mean Sea Level PressureIn, Min Sea Level PressureIn, Max VisibilityMiles, Mean VisibilityMiles, Min VisibilityMiles, Max Wind SpeedMPH, Mean Wind SpeedMPH, Max Gust SpeedMPH,PrecipitationIn, CloudCover, Events, WindDirDegrees
2014-1-1,48,35,21,33,24,19,92,66,39,30.33,30.20,29.96,10,10,8,15,5,19,T,1,Rain,179
2014-1-2,43,30,17,39,25,8,100,84,67,30.40,30.06,29.86,10,5,0,22,9,32,0.11,8,Fog-Rain-Snow,307
2014-1-3,25,19,12,10,8,5,84,67,50,30.58,30.46,30.28,10,10,10,9,5,15,0.00,0,,75
2014-1-4,45,30,15,26,15,10,80,56,31,30.29,30.19,30.07,10,10,10,23,9,28,0.00,1,,184
2014-1-5,57,37,17,48,31,10,93,77,61,30.10,29.83,29.59,10,7,1,31,16,42,0.31,7,Rain-Snow,236
2014-1-6,17,9,0,8,-6,-14,76,60,44,30.58,30.41,30.13,10,9,2,20,11,28,T,5,Snow,301
2014-1-7,19,10,0,6,-2,-10,72,60,47,30.63,30.53,30.43,10,10,10,14,8,19,0.00,0,,210
2014-1-8,37,27,16,21,13,6,69,56,43,30.53,30.47,30.43,10,10,10,13,5,17,0.00,2,,191
2014-1-9,44,37,29,34,25,13,92,61,29,30.48,30.39,30.25,10,10,7,13,4,16,0.09,7,Rain,126
2014-1-10,58,47,36,52,46,35,93,85,77,30.24,30.03,29.67,10,10,6,28,10,38,0.00,7,,175
2014-1-11,58,48,37,52,42,33,96,78,60,29.95,29.75,29.60,10,8,2,22,10,30,0.63,5,Rain,255
2014-1-12,54,43,31,36,32,29,100,73,45,30.14,30.04,29.96,10,10,5,17,8,22,0.00,0,,199
2014-1-13,52,47,42,50,44,30,100,72,44,29.95,29.84,29.77,10,8,1,22,12,28,0.48,7,Rain,210
2014-1-14,55,42,29,43,35,29,100,71,41,30.04,29.92,29.83,10,7,0,20,7,28,0.01,2,Fog-Rain,238
2014-1-15,35,28,20,31,17,14,96,72,47,30.18,30.13,30.05,10,10,10,15,5,21,T,2,,297
2014-1-16,44,31,18,34,22,14,84,61,37,30.11,29.94,29.81,10,10,7,21,8,28,0.03,5,Rain,203
2014-1-17,35,28,21,32,19,8,96,73,50,30.17,30.00,29.81,10,8,1,22,9,28,T,8,Snow,286
2014-1-18,42,30,17,29,15,11,74,54,33,30.15,29.99,29.82,10,10,10,22,9,29,0.00,5,,204
2014-1-19,44,37,30,30,25,22,82,64,45,30.13,30.00,29.85,10,10,10,18,11,25,0.00,4,,251
2014-1-20,56,46,35,31,26,22,70,51,32,29.97,29.90,29.85,10,10,10,14,5,18,0.00,1,,237
2014-1-21,41,27,12,32,20,5,92,72,52,30.25,30.02,29.82,10,6,0,22,9,34,0.07,7,Fog-Snow,313
2014-1-22,23,14,5,11,6,0,88,71,54,30.26,30.20,30.11,10,10,10,14,6,21,0.00,4,,209
2014-1-23,21,13,5,13,1,-5,74,58,42,30.75,30.54,30.23,10,10,9,18,8,27,T,2,,315
2014-1-24,25,14,2,4,1,-2,79,57,35,30.76,30.47,30.05,10,10,10,23,11,29,0.00,0,,212
2014-1-25,45,35,24,26,15,1,75,54,32,30.02,29.87,29.76,10,7,2,23,14,31,0.02,6,Snow,246
2014-1-26,60,38,16,31,21,7,68,49,29,29.98,29.78,29.66,10,10,10,28,12,38,0.00,1,,205
2014-1-27,49,31,13,31,2,-9,64,45,25,30.45,30.23,29.76,10,10,10,26,9,41,0.00,2,,333
2014-1-28,18,13,8,-1,-5,-10,69,50,30,30.49,30.44,30.39,10,10,10,12,6,16,0.00,3,,351
2014-1-29,26,14,2,1,-3,-5,79,54,29,30.50,30.42,30.35,10,10,10,12,3,15,0.00,0,,183
2014-1-30,41,24,6,4,0,-6,73,44,15,30.35,30.19,30.05,10,10,10,20,8,27,0.00,0,,185
2014-1-31,46,35,24,24,18,10,45,39,33,30.19,30.11,30.04,10,10,10,12,5,14,0.00,8,,148